ContactaLinksHome
    
DADES METEOROLÒGIQUES DE LES ÚLTIMES 24 HORES
 

Taire  Temperatura de l'aire  (ºC)
HumitatR  Humitat relativa de l'aire (%)
Pluja  Litres de pluja per metre cuadrat caiguts en 10 minuts (l/m²)
VelVent  Velocitat mitjana del vent (m/s)
DirVent  Direcció del vent  (º)
RadSolar  Intensitat de Radiació solar (w/m²)
PressAtm  Pressió atmosfèrica (mb)
  ***Dades sense verificar
DataTaireHumitatRPlujaVelVentDirVentRadSolarPressAtm
12/11/2019 18:00:0015.4440,02.831401005
12/11/2019 17:50:0015.6430,03.231601005
12/11/2019 17:40:0015.7430,03.130201005
12/11/2019 17:30:0015.9410,03.628601005
12/11/2019 17:20:0016.1400,02.129701005
12/11/2019 17:10:0016.1400,02.728301005
12/11/2019 17:00:0016.2390,02.427601005
12/11/2019 16:50:0016.3380,02.230101005
12/11/2019 16:40:0016.4370,02.927521005
12/11/2019 16:30:0016.4380,02.629161005
12/11/2019 16:20:0016.7360,03.1270151005
12/11/2019 16:10:0016.9360,03.1283561005
12/11/2019 16:00:0017.1360,03.6285801005
12/11/2019 15:50:0017.3360,02.22651101005
12/11/2019 15:40:0017.2360,02.02771401005
12/11/2019 15:30:0016.9460,02.02591681005
12/11/2019 15:20:0016.2470,01.7341931005
12/11/2019 15:10:0016.4490,02.4572211005
12/11/2019 15:00:0016.3480,03.2362491005
12/11/2019 14:50:0016.0500,03.8532751005
12/11/2019 14:40:0015.4530,03.8522981005
12/11/2019 14:30:0016.9480,03.7153221005
12/11/2019 14:20:0016.9310,03.72743471005
12/11/2019 14:10:0016.8300,03.53113681005
12/11/2019 14:00:0016.8330,03.22673871005
12/11/2019 13:50:0016.4410,01.22734011005
12/11/2019 13:40:0016.0450,01.61014171005
12/11/2019 13:30:0015.5460,01.8974331006
12/11/2019 13:20:0014.7470,02.31244451006
12/11/2019 13:10:0014.6480,02.71204591006
12/11/2019 13:00:0014.5480,02.41124691006
12/11/2019 12:50:0014.2470,02.81314801006
12/11/2019 12:40:0014.1470,02.51254891007
12/11/2019 12:30:0013.9480,03.51114961007
12/11/2019 12:20:0014.4500,03.51045051007
12/11/2019 12:10:0014.3490,03.6975101007
12/11/2019 12:00:0015.0470,02.7995161007
12/11/2019 11:50:0015.1440,01.6895201008
12/11/2019 11:40:0015.0450,02.51085221008
12/11/2019 11:30:0014.9450,01.7185211008
12/11/2019 11:20:0015.0400,02.285201008
12/11/2019 11:10:0014.9330,02.53095171008
12/11/2019 11:00:0014.8340,02.82645141008
12/11/2019 10:50:0014.7340,02.42995091008
12/11/2019 10:40:0014.4350,02.92825031008
12/11/2019 10:30:0014.1370,02.52694951008
12/11/2019 10:20:0013.8380,02.32884841009
12/11/2019 10:10:0013.5390,02.53124731009
12/11/2019 10:00:0013.1400,02.62864621009
12/11/2019 9:50:0012.8400,02.12984481009
12/11/2019 9:40:0012.6430,02.42774351009
12/11/2019 9:30:0012.3440,02.53314181009
12/11/2019 9:20:0012.0450,02.23053991009
12/11/2019 9:10:0011.8470,02.52803811009
12/11/2019 9:00:0011.4470,03.23133611009
12/11/2019 8:50:0011.1490,03.42823401009
12/11/2019 8:40:0010.7500,03.02983171009
12/11/2019 8:30:0010.4520,02.63192931009
12/11/2019 8:20:0010.1550,02.82942291009
12/11/2019 8:10:009.5560,02.42881811009
12/11/2019 8:00:009.4560,01.53251011009
12/11/2019 7:50:009.4580,02.2121091009
12/11/2019 7:40:009.2580,03.39641009
12/11/2019 7:30:009.4590,03.13551009
12/11/2019 7:20:009.4560,03.8338461009
12/11/2019 7:10:009.4570,04.4342431009
12/11/2019 7:00:009.4560,04.2335241009
12/11/2019 6:50:009.4570,03.6313131009
12/11/2019 6:40:009.3560,03.632141009
12/11/2019 6:30:009.3580,04.632111009
12/11/2019 6:20:009.3580,04.233201009
12/11/2019 6:10:009.6550,04.931901009
12/11/2019 6:00:009.6560,04.333801009
12/11/2019 5:50:009.5570,04.432301009
12/11/2019 5:40:009.3570,04.730401009
12/11/2019 5:30:009.3570,05.031101009
12/11/2019 5:20:009.4580,05.132201009
12/11/2019 5:10:009.8570,04.931701009
12/11/2019 5:00:009.7570,03.830501009
12/11/2019 4:50:009.6570,03.531001009
12/11/2019 4:40:009.6580,03.832601009
12/11/2019 4:30:009.5590,04.632701009
12/11/2019 4:20:009.6590,05.531901009
12/11/2019 4:10:009.6590,05.431401009
12/11/2019 4:00:009.7590,05.333401009
12/11/2019 3:50:009.8590,04.731201009
12/11/2019 3:40:009.9590,04.831301009
12/11/2019 3:30:0010.0590,04.731601009
12/11/2019 3:20:0010.1600,04.632001009
12/11/2019 3:10:0010.1600,04.831201009
12/11/2019 3:00:0010.2600,04.631601009
12/11/2019 2:50:0010.2610,04.731601009
12/11/2019 2:40:0010.4610,04.131101009
12/11/2019 2:30:0010.4610,03.831101009
12/11/2019 2:20:0010.2620,03.731701009
12/11/2019 2:10:0010.3620,04.032401009
12/11/2019 2:00:0010.4610,04.932601010
12/11/2019 1:50:0010.5620,04.531401009
12/11/2019 1:40:0010.5630,04.431001009
12/11/2019 1:30:0010.4640,04.631301009
12/11/2019 1:20:0010.6630,04.431001009
12/11/2019 1:10:0010.6620,04.131301009
12/11/2019 1:00:0010.6630,03.732101010
12/11/2019 0:50:0010.7630,03.633501010
12/11/2019 0:40:0010.8630,04.231501010
12/11/2019 0:30:0010.9620,03.931501010
12/11/2019 0:20:0010.9600,03.829701010
12/11/2019 0:10:0010.9600,03.831401010
12/11/2019 0:00:0010.9600,04.830601010
11/11/2019 23:50:0010.8610,04.831701010
11/11/2019 23:40:0010.9610,04.732101010
11/11/2019 23:30:0010.8620,04.031401010
11/11/2019 23:20:0010.7630,05.031401010
11/11/2019 23:10:0010.8630,04.833401010
11/11/2019 23:00:0011.0620,04.133901010
11/11/2019 22:50:0011.0610,03.131201010
11/11/2019 22:40:0011.1610,03.832601009
11/11/2019 22:30:0011.3610,04.633101009
11/11/2019 22:20:0011.3620,03.932501010
11/11/2019 22:10:0011.1620,03.433101010
11/11/2019 22:00:0011.3610,03.034301010
11/11/2019 21:50:0011.6600,02.834301010
11/11/2019 21:40:0011.7590,02.233601010
11/11/2019 21:30:0011.6580,03.732201010
11/11/2019 21:20:0011.6580,04.030501010
11/11/2019 21:10:0011.8570,03.731901010
11/11/2019 21:00:0011.8530,02.533501009
11/11/2019 20:50:0011.7490,03.532301009
11/11/2019 20:40:0011.8480,03.532801009
11/11/2019 20:30:0012.1470,03.531101009
11/11/2019 20:20:0012.1450,04.331501009
11/11/2019 20:10:0012.1440,02.931901009
11/11/2019 20:00:0012.1440,03.433401009
11/11/2019 19:50:0012.3430,03.331701009
11/11/2019 19:40:0012.5420,03.033401009
11/11/2019 19:30:0012.6420,02.531301009
11/11/2019 19:20:0012.3440,02.532601009
11/11/2019 19:10:0012.3450,03.431101009
11/11/2019 19:00:0012.3440,03.231601009
11/11/2019 18:50:0012.4430,03.432401009
11/11/2019 18:40:0012.5420,03.733001009
11/11/2019 18:30:0012.6410,03.434101009
11/11/2019 18:20:0012.6410,03.432101009
11/11/2019 18:10:0012.7400,04.033001009

ÚLTIMES FOTOS WEBCAM
Imatges del Pont
ÚLTIMES DADES

12/11/2019  
19:00h Local  (18:00 GMT)
 
 Velocitat mitjana del Vent
   2,8 m/s
 Direcció del Vent
   314º
 Humitat Relativa
   44 %
 Temperatura Aparent
   15,4 ºC
 Pluja Acumulada
   0,0 l/m²
      
 Temperatura de l'aigua    N/A
 Alçada d'ona    N/A
 Direcció d'ona    N/A
 Velocitat del corrent    N/A
 Direcció del corrent    N/A